Flag Weather past 2 weeks in Little Rock, Arkansas, U.S.A.

Now
55 °F

Scattered clouds.


Feels Like: 53 °F
Forecast: 36 / 54 °F
Wind: 7 mph from North

Location: Adams Field

Current Time: Nov 25, 2014 at 3:06:10 PM

Latest Report: Nov 25, 2014 at 1:53 PM


Visibility: 10 mi

Pressure: 30.18 "Hg

Humidity: 19%

Dew point: 13 °F

Location of Little RockLocation

Historic Weather in Little Rock — Graph

°F

Little Rock temperature yesterday

Maximum temperature yesterday: 61 °F (at 1:53 PM)
Minimum temperature yesterday: 39 °F (at 11:53 PM)
Average temperature yesterday: 51 °F

Past Weeks' High & Low Weather Summary

 TemperatureHumidityPressure
High74 °F (Nov 10, 1:53 PM)94% (Nov 21, 9:03 PM)30.55 "Hg (Nov 21, 9:03 PM)
Low20 °F (Nov 18, 5:53 AM)19% (Nov 25, 1:53 PM)29.35 "Hg (Nov 23, 3:53 PM)
Average43 °F62%30.17 "Hg
* Reported Nov 10 1:53 PM — Nov 25 1:53 PM, Little Rock, Weather by CustomWeather, © 2014

Note: Actual official high and low records may vary slightly from our data, if they occured in-between our weather recording intervals... More about our weather records

Advertising

Little Rock weather history for previous 24 hours

 ConditionsComfort  
Time TempWeatherWind HumidityBarometerVisibility
1:53 PM
Nov 25
55 °FScattered clouds.7 mph19%30.18 "Hg10 mi
12:53 PM54 °FScattered clouds.5 mph24%30.22 "Hg10 mi
11:53 AM53 °FScattered clouds.10 mph22%30.26 "Hg10 mi
10:53 AM50 °FScattered clouds.8 mph35%30.29 "Hg10 mi
9:53 AM46 °FScattered clouds.7 mph46%30.30 "Hg10 mi
8:53 AM41 °FPassing clouds.8 mph65%30.29 "Hg10 mi
7:53 AM35 °FPassing clouds.No wind78%30.27 "Hg10 mi
6:53 AM31 °FPassing clouds.3 mph85%30.24 "Hg10 mi
5:53 AM32 °FClear.3 mph79%30.21 "Hg10 mi
4:53 AM32 °FClear.5 mph82%30.23 "Hg10 mi
3:53 AM33 °FClear.6 mph82%30.20 "Hg10 mi
2:53 AM36 °FClear.No wind73%30.19 "Hg10 mi
1:53 AM37 °FClear.6 mph70%30.16 "Hg10 mi
12:53 AM38 °FClear.6 mph70%30.14 "Hg10 mi
11:53 PM
Nov 24
39 °FClear.5 mph65%30.11 "Hg10 mi
10:53 PM43 °FClear.5 mph53%30.10 "Hg10 mi
9:53 PM43 °FClear.6 mph56%30.09 "Hg10 mi
8:53 PM44 °FClear.3 mph53%30.08 "Hg10 mi
7:53 PM45 °FClear.3 mph51%30.05 "Hg10 mi
6:53 PM51 °FClear.5 mph35%30.03 "Hg10 mi
5:53 PM52 °FPassing clouds.6 mph31%30.00 "Hg10 mi
4:53 PM57 °FScattered clouds.13 mph24%29.97 "Hg10 mi
3:53 PM59 °FScattered clouds.13 mph22%29.95 "Hg10 mi
Weather by CustomWeather, © 2014

See weather overviewHow to use our weather pages